Tracking 29892 objects as of 21-Nov-2024
HD Live streaming from Space Station
objects crossing your sky now

STARLINK-30157

Track STARLINK-30157 now!
10-day predictions
STARLINK-30157 is classified as:


NORAD ID: 57512
Int'l Code: 2023-113T
Perigee: 564.8 km
Apogee: 567.6 km
Inclination: 43.0 °
Period: 95.8 minutes
Semi major axis: 6937 km
RCS: Unknown
Launch date: August 7, 2023
Source: United States (US)
Launch site: AIR FORCE EASTERN TEST RANGE (AFETR)
Your satellite tracking list
Your tracking list is empty




NASA's NSSDC Master Catalog

Two Line Element Set (TLE):
1 57512U 23113T   24325.70103623 -.00005963  00000-0 -42661-3 0  9995
2 57512  43.0062  46.8566 0001983 271.2649  88.7967 15.02542674 72666
Source of the keplerian elements: AFSPC